[[{"header":{"parameterUnit":"m.s-1","parameterCategory":2,"la1":30.2992,"la2":30.254,"lo1":-89.0895,"lo2":-89.0443,"dy":0.0025,"dx":0.0025,"nx":19,"ny":19,"refTime":"2026-04-03T09:00:00:Z","depth":"0","parameterNumber":2,"parameterNumberName":"U-component_of_CURRENTS"},"data":[0,0,0,-0.2783,-0.2787,-0.2874,-0.2874,-0.28,-0.28,0,0,0,0,0,0,0,0,0,0,0,-0.2747,-0.2748,-0.2783,-0.2787,-0.2874,-0.2874,-0.2801,-0.28,0,0,0,0,0,0,0,0,0,0,0,-0.2746,-0.2748,-0.275,-0.2787,-0.2874,-0.2874,-0.2801,-0.2771,0,0,0,0,0,0,0,0,0,0,-0.2704,-0.2662,-0.2748,-0.275,-0.2788,-0.2874,-0.2874,-0.2771,-0.2772,-0.2722,0,-0.2771,0,-0.2803,-0.2795,-0.2794,0,0,0,-0.2744,-0.2661,-0.2746,-0.275,-0.279,-0.2874,-0.2822,-0.2773,-0.2774,-0.2723,-0.277,-0.2769,-0.2801,-0.2794,-0.2794,-0.2831,-0.2832,0,0,-0.2739,-0.269,-0.2746,-0.2749,-0.2855,-0.282,-0.2826,-0.2775,-0.2754,-0.277,-0.2768,-0.28,-0.2794,-0.2793,-0.283,-0.2831,0,0,0,-0.2754,-0.2686,-0.2773,-0.275,-0.2792,-0.2824,-0.283,-0.2755,-0.2804,-0.2768,-0.2799,-0.2793,-0.2792,-0.2829,-0.2831,-0.2884,0,0,0,-0.2749,-0.27,-0.2772,-0.2732,-0.2795,-0.2788,-0.281,-0.2807,-0.2803,-0.28,-0.2793,-0.2791,-0.2828,-0.283,-0.2881,-0.2932,0,0,0,-0.2735,-0.2695,-0.2735,-0.2731,-0.2798,-0.2792,-0.2833,-0.2807,-0.2823,-0.2794,-0.2791,-0.2827,-0.2829,-0.2877,-0.2925,-0.2962,0,0,0,-0.264,-0.2703,-0.2733,-0.2773,-0.2798,-0.2844,-0.2834,-0.2829,-0.2807,-0.2793,-0.2828,-0.283,-0.2876,-0.2921,-0.2958,-0.2782,-0.2785,0,0,-0.2675,-0.2704,-0.2727,-0.2759,-0.2778,-0.2826,-0.2857,-0.2832,-0.283,-0.282,-0.2823,-0.2882,-0.2925,-0.2961,-0.2918,-0.2916,0,0,0,-0.2706,-0.2712,-0.2722,-0.2735,-0.2786,-0.2855,-0.2841,-0.2886,-0.2925,-0.2842,-0.2915,-0.2942,-0.2962,-0.2848,-0.2849,-0.2779,-0.2841,-0.2841,-0.2841,-0.2615,-0.2655,-0.2657,-0.2712,-0.2759,-0.285,-0.2935,-0.3004,-0.294,-0.3006,-0.3008,-0.311,-0.2991,-0.2989,-0.2921,-0.302,-0.3021,-0.3021,-0.3021,-0.2569,-0.2566,-0.2614,-0.2636,-0.2746,-0.2792,-0.3008,-0.3053,-0.317,-0.312,-0.3135,-0.294,-0.2991,-0.2919,-0.3025,-0.3024,-0.3024,-0.3023,-0.3023,-0.2468,-0.2487,-0.2499,-0.2539,-0.2651,-0.2798,-0.2991,-0.3141,-0.3217,-0.3283,-0.3107,-0.3103,-0.3018,-0.3247,-0.3247,-0.3248,-0.3248,-0.3248,-0.3249,-0.2361,-0.2394,-0.2371,-0.2454,-0.2514,-0.268,-0.2982,-0.309,-0.3169,-0.3184,-0.3181,-0.3045,-0.3179,-0.3145,-0.3255,-0.3254,-0.3253,-0.3252,-0.3252,-0.2231,-0.2258,-0.2234,-0.2262,-0.2412,-0.252,-0.2825,-0.2969,-0.3102,-0.3078,-0.2984,-0.3128,-0.3095,-0.3091,-0.3056,-0.3137,-0.3137,-0.3137,-0.3137,-0.2126,-0.2139,-0.2092,-0.2133,-0.2265,-0.2454,-0.2534,-0.2685,-0.2805,-0.2802,-0.2904,-0.2791,-0.2798,-0.2744,-0.2749,-0.2705,-0.2696,-0.2695,-0.2695,-0.1993,-0.2013,-0.1941,-0.2004,-0.2172,-0.2317,-0.2298,-0.2385,-0.2563,-0.268,-0.2856,-0.2874,-0.2714,-0.2731,-0.2645,-0.2657,-0.2585,0,0]},{"header":{"parameterUnit":"m.s-1","parameterCategory":2,"la1":30.2992,"la2":30.254,"lo1":-89.0895,"lo2":-89.0443,"dy":0.0025,"dx":0.0025,"nx":19,"ny":19,"refTime":"2026-04-03T09:00:00:Z","depth":"0","parameterNumber":3,"parameterNumberName":"V-component_of_CURRENTS"},"data":[0,0,0,-0.0329,-0.0327,-0.0209,-0.0208,0.0033,0.0035,0,0,0,0,0,0,0,0,0,0,0,-0.0364,-0.0364,-0.0329,-0.0327,-0.0209,-0.0208,0.0033,0.0035,0,0,0,0,0,0,0,0,0,0,0,-0.0364,-0.0364,-0.0364,-0.0327,-0.0209,-0.0208,0.0032,-0.0071,0,0,0,0,0,0,0,0,0,0,-0.0194,-0.0247,-0.0364,-0.0364,-0.0327,-0.021,-0.0208,-0.0077,-0.0065,-0.0006,0,-0.0008,0,0.0004,0.005,0.0051,0,0,0,-0.0293,-0.0257,-0.0238,-0.0364,-0.0326,-0.021,-0.0253,-0.0071,-0.0057,0.0011,-0.0004,0.0004,0.0008,0.0052,0.0053,0.0256,0.0257,0,0,-0.03,-0.032,-0.0248,-0.023,-0.0319,-0.0257,-0.025,-0.0063,-0.0049,-0.0004,0.0009,0.0012,0.0053,0.0055,0.0256,0.0256,0,0,0,-0.0341,-0.0325,-0.0311,-0.0239,-0.0233,-0.0254,-0.0246,-0.0057,-0.0057,0.0012,0.0015,0.0054,0.0057,0.0255,0.0256,0.0142,0,0,0,-0.0344,-0.0352,-0.0314,-0.0322,-0.0238,-0.0156,-0.0244,-0.0069,-0.0048,0.0014,0.0054,0.0059,0.0254,0.0255,0.0143,0.0102,0,0,0,-0.0366,-0.0354,-0.0351,-0.0324,-0.029,-0.0159,-0.0146,-0.0064,-0.0047,0.0051,0.006,0.0254,0.0255,0.0145,0.0106,0.0156,0,0,0,-0.0374,-0.0422,-0.0352,-0.0375,-0.0292,-0.0228,-0.0147,-0.0077,-0.0002,0.0056,0.0254,0.0256,0.0145,0.0108,0.0157,0.0123,0.0116,0,0,-0.0453,-0.0431,-0.0441,-0.0378,-0.0343,-0.024,-0.0173,-0.0049,0.0046,0.0204,0.0209,0.0143,0.0106,0.0157,0.0198,0.0188,0,0,0,-0.0478,-0.0481,-0.0455,-0.041,-0.0334,-0.0245,-0.0117,-0.0038,0.0096,0.009,0.0202,0.0184,0.0218,0.0202,0.0195,0.0451,0.0262,0.0262,0.0261,-0.0582,-0.0529,-0.0523,-0.0441,-0.0385,-0.023,-0.0149,-0.0007,0.008,0.0129,0.0133,0.0152,0.0132,0.0127,0.0391,0.018,0.0179,0.0179,0.0179,-0.0667,-0.0671,-0.0568,-0.0555,-0.0434,-0.0362,-0.0169,-0.0091,0.0076,0.0119,0.0158,0.0134,0.0113,0.0398,0.0172,0.0173,0.0174,0.0175,0.0175,-0.0745,-0.0748,-0.0714,-0.0662,-0.0599,-0.046,-0.0391,-0.0224,-0.0026,0.001,0.008,0.0081,0.0301,0.0049,0.0049,0.0049,0.0049,0.0049,0.0049,-0.0853,-0.0821,-0.0832,-0.0774,-0.0763,-0.0707,-0.0506,-0.0387,-0.0157,-0.0015,-0.0014,0.0354,0.0115,0.0084,0.005,0.005,0.005,0.0049,0.0049,-0.096,-0.0945,-0.0971,-0.0972,-0.0943,-0.0955,-0.0764,-0.0501,-0.0304,-0.0188,0.03,0.0007,0.0061,0.0067,0.0039,-0.0004,-0.0004,-0.0004,-0.0004,-0.1033,-0.1024,-0.1071,-0.111,-0.113,-0.1074,-0.0972,-0.0638,-0.0041,0.0288,0.0425,0.0458,0.0448,0.053,0.0526,0.051,0.0588,0.059,0.0591,-0.1068,-0.108,-0.1137,-0.1171,-0.1219,-0.12,-0.1102,-0.0718,0.0186,0.0647,0.0797,0.0771,0.0851,0.0816,0.0967,0.094,0.0922,0,0]}],[{"header":{"parameterUnit":"m.s-1","parameterCategory":2,"la1":30.2992,"la2":30.254,"lo1":-89.0895,"lo2":-89.0443,"dy":0.0025,"dx":0.0025,"nx":19,"ny":19,"refTime":"2026-04-03T09:00:00:Z","depth":"2","parameterNumber":2,"parameterNumberName":"U-component_of_CURRENTS"},"data":[0,0,0,-0.2436,-0.244,-0.2588,-0.2588,-0.2556,-0.2556,0,0,0,0,0,0,0,0,0,0,0,-0.2376,-0.2377,-0.2436,-0.244,-0.2588,-0.2588,-0.2556,-0.2556,0,0,0,0,0,0,0,0,0,0,0,-0.2375,-0.2377,-0.2379,-0.2441,-0.2588,-0.2588,-0.2556,-0.2493,0,0,0,0,0,0,0,0,0,0,-0.2374,-0.2331,-0.2376,-0.2379,-0.2442,-0.2588,-0.2588,-0.2492,-0.2497,-0.2435,0,-0.2482,0,-0.253,-0.2551,-0.2551,0,0,0,-0.2413,-0.2328,-0.2404,-0.2379,-0.2444,-0.2588,-0.2513,-0.2496,-0.2501,-0.244,-0.2482,-0.2483,-0.2529,-0.255,-0.255,-0.253,-0.253,0,0,-0.2404,-0.2356,-0.2402,-0.2408,-0.2509,-0.2509,-0.2518,-0.2502,-0.249,-0.2482,-0.2484,-0.2529,-0.255,-0.2549,-0.253,-0.253,0,0,0,-0.24,-0.235,-0.243,-0.2407,-0.246,-0.2514,-0.2525,-0.2491,-0.253,-0.2484,-0.2529,-0.255,-0.2549,-0.2529,-0.253,-0.2602,0,0,0,-0.2393,-0.2351,-0.2427,-0.2392,-0.2462,-0.2501,-0.2513,-0.253,-0.2532,-0.2529,-0.255,-0.2548,-0.2529,-0.253,-0.26,-0.265,0,0,0,-0.2364,-0.2346,-0.2381,-0.2391,-0.2474,-0.2504,-0.254,-0.2533,-0.2558,-0.2551,-0.2548,-0.2529,-0.253,-0.2597,-0.2645,-0.2675,0,0,0,-0.2283,-0.2348,-0.238,-0.2444,-0.2473,-0.2536,-0.2541,-0.2566,-0.2562,-0.2549,-0.2529,-0.253,-0.2597,-0.2642,-0.2672,-0.2497,-0.2496,0,0,-0.2325,-0.235,-0.2389,-0.2424,-0.2463,-0.2512,-0.2554,-0.2561,-0.2549,-0.2513,-0.2514,-0.2601,-0.2644,-0.2675,-0.2538,-0.2536,0,0,0,-0.2376,-0.2393,-0.2411,-0.2443,-0.2493,-0.2549,-0.2559,-0.2594,-0.2621,-0.256,-0.2594,-0.262,-0.2637,-0.2524,-0.2523,-0.2533,-0.2533,-0.2533,-0.2533,-0.2309,-0.2357,-0.2379,-0.2436,-0.248,-0.2554,-0.2627,-0.2671,-0.2621,-0.2666,-0.2674,-0.2743,-0.2622,-0.2619,-0.2657,-0.2658,-0.2658,-0.2658,-0.2658,-0.2292,-0.23,-0.2351,-0.2393,-0.2466,-0.2505,-0.2671,-0.2712,-0.28,-0.2755,-0.2766,-0.26,-0.2622,-0.2664,-0.2663,-0.2662,-0.2662,-0.2661,-0.2661,-0.2208,-0.2223,-0.2258,-0.2308,-0.2395,-0.251,-0.2655,-0.2782,-0.2851,-0.2908,-0.2734,-0.273,-0.2794,-0.2881,-0.2881,-0.2882,-0.2882,-0.2882,-0.2883,-0.2095,-0.2143,-0.2141,-0.2231,-0.228,-0.241,-0.2651,-0.2735,-0.2797,-0.281,-0.2808,-0.2818,-0.281,-0.2806,-0.2888,-0.2887,-0.2886,-0.2886,-0.2886,-0.1987,-0.2017,-0.2019,-0.2051,-0.2172,-0.2234,-0.2488,-0.2594,-0.2708,-0.2685,-0.2749,-0.275,-0.271,-0.2707,-0.2699,-0.2749,-0.2749,-0.2749,-0.2749,-0.1891,-0.191,-0.1889,-0.1925,-0.2015,-0.2153,-0.2174,-0.227,-0.2428,-0.2449,-0.2463,-0.2353,-0.2364,-0.23,-0.2306,-0.2288,-0.2232,-0.2231,-0.223,-0.1785,-0.1804,-0.1751,-0.1807,-0.1921,-0.2,-0.1934,-0.1902,-0.2007,-0.2212,-0.2395,-0.271,-0.2579,-0.2586,-0.2508,-0.251,-0.2489,0,0]},{"header":{"parameterUnit":"m.s-1","parameterCategory":2,"la1":30.2992,"la2":30.254,"lo1":-89.0895,"lo2":-89.0443,"dy":0.0025,"dx":0.0025,"nx":19,"ny":19,"refTime":"2026-04-03T09:00:00:Z","depth":"2","parameterNumber":3,"parameterNumberName":"V-component_of_CURRENTS"},"data":[0,0,0,-0.0292,-0.0291,-0.0175,-0.0174,0.0045,0.0047,0,0,0,0,0,0,0,0,0,0,0,-0.033,-0.033,-0.0292,-0.0291,-0.0175,-0.0174,0.0045,0.0047,0,0,0,0,0,0,0,0,0,0,0,-0.033,-0.033,-0.033,-0.029,-0.0175,-0.0174,0.0045,-0.0053,0,0,0,0,0,0,0,0,0,0,-0.0172,-0.0225,-0.033,-0.033,-0.029,-0.0175,-0.0174,-0.0059,-0.0047,0.0004,0,0.0003,0,0.0018,0.0061,0.0062,0,0,0,-0.0261,-0.0235,-0.0212,-0.033,-0.0289,-0.0175,-0.0219,-0.0053,-0.004,0.0019,0.0006,0.0014,0.0022,0.0062,0.0063,0.0219,0.0219,0,0,-0.0267,-0.0291,-0.0222,-0.0205,-0.0282,-0.0223,-0.0215,-0.0045,-0.0035,0.0007,0.0019,0.0025,0.0064,0.0065,0.0219,0.0219,0,0,0,-0.0306,-0.0296,-0.0278,-0.0214,-0.0205,-0.022,-0.0212,-0.0042,-0.0039,0.0021,0.0028,0.0065,0.0067,0.0218,0.0219,0.0111,0,0,0,-0.0308,-0.032,-0.0281,-0.0291,-0.0209,-0.0131,-0.0212,-0.0051,-0.0031,0.0027,0.0065,0.0069,0.0218,0.0219,0.0113,0.0057,0,0,0,-0.0331,-0.0322,-0.0318,-0.0293,-0.0258,-0.0134,-0.012,-0.0046,-0.0028,0.0062,0.007,0.0218,0.0219,0.0115,0.0062,0.0092,0,0,0,-0.0344,-0.0384,-0.0319,-0.0339,-0.0259,-0.0199,-0.0121,-0.0054,0.0015,0.0066,0.0218,0.0219,0.0116,0.0065,0.0094,0.0089,0.008,0,0,-0.0414,-0.0393,-0.0402,-0.0342,-0.031,-0.0211,-0.0161,-0.0043,0.0044,0.0172,0.0176,0.0112,0.0062,0.0093,0.0114,0.0104,0,0,0,-0.0435,-0.0441,-0.0417,-0.0376,-0.0303,-0.0235,-0.0111,-0.0048,0.0062,0.0081,0.0152,0.0125,0.0147,0.0149,0.0142,0.0221,0.0221,0.0221,0.0221,-0.0539,-0.0489,-0.0487,-0.0414,-0.0366,-0.0234,-0.0172,-0.0057,0.0035,0.0068,0.0066,0.0052,0.0053,0.0048,0.0107,0.0106,0.0106,0.0105,0.0105,-0.0623,-0.0628,-0.0541,-0.0531,-0.0432,-0.0377,-0.0224,-0.0154,-0.0029,0.0023,0.0051,0.007,0.0033,0.0097,0.0099,0.01,0.0101,0.0101,0.0102,-0.0701,-0.0702,-0.0677,-0.0639,-0.0597,-0.0482,-0.0448,-0.0306,-0.0135,-0.0113,-0.003,-0.0028,-0.0012,-0.0075,-0.0075,-0.0076,-0.0076,-0.0076,-0.0076,-0.08,-0.0775,-0.0793,-0.0751,-0.0748,-0.0713,-0.0566,-0.0473,-0.027,-0.0138,-0.0136,-0.0007,-0.0001,-0.0018,-0.0078,-0.0078,-0.0077,-0.0077,-0.0077,-0.0901,-0.0892,-0.0927,-0.0935,-0.0925,-0.0948,-0.0803,-0.0581,-0.0423,-0.0312,-0.0117,-0.0115,-0.0067,-0.006,-0.0075,-0.0146,-0.0146,-0.0146,-0.0146,-0.0972,-0.0967,-0.1027,-0.1075,-0.1105,-0.1063,-0.0986,-0.0702,-0.0371,-0.0187,-0.0185,-0.017,-0.0166,-0.0121,-0.0111,-0.0126,-0.0211,-0.0211,-0.0211,-0.1013,-0.1026,-0.1092,-0.1134,-0.1188,-0.1179,-0.109,-0.075,-0.0303,-0.0214,-0.02,-0.015,-0.0121,-0.0118,-0.0038,-0.0028,-0.0048,0,0]}],[{"header":{"parameterUnit":"m.s-1","parameterCategory":2,"la1":30.2992,"la2":30.254,"lo1":-89.0895,"lo2":-89.0443,"dy":0.0025,"dx":0.0025,"nx":19,"ny":19,"refTime":"2026-04-03T09:00:00:Z","depth":"4","parameterNumber":2,"parameterNumberName":"U-component_of_CURRENTS"},"data":[0,0,0,-0.1386,-0.1387,-0.1502,-0.1503,-0.1663,-0.1664,0,0,0,0,0,0,0,0,0,0,0,-0.1353,-0.1353,-0.1386,-0.1387,-0.1502,-0.1503,-0.1663,-0.1664,0,0,0,0,0,0,0,0,0,0,0,-0.1353,-0.1353,-0.1353,-0.1387,-0.1502,-0.1504,-0.1663,-0.1583,0,0,0,0,0,0,0,0,0,0,-0.1473,-0.1465,-0.1353,-0.1353,-0.1387,-0.1502,-0.1504,-0.1579,-0.1588,-0.1601,0,-0.1596,0,-0.1612,-0.1671,-0.1672,0,0,0,-0.1429,-0.1458,-0.144,-0.1353,-0.1388,-0.1502,-0.1462,-0.1584,-0.1594,-0.1612,-0.1598,-0.1604,-0.1614,-0.1672,-0.1673,-0.1794,-0.1794,0,0,-0.1422,-0.143,-0.1433,-0.1445,-0.1388,-0.1458,-0.1465,-0.159,-0.1616,-0.1599,-0.1608,-0.1617,-0.1673,-0.1674,-0.1793,-0.1794,0,0,0,-0.1376,-0.1426,-0.1407,-0.1438,-0.1446,-0.146,-0.1469,-0.1613,-0.1591,-0.1609,-0.1619,-0.1673,-0.1675,-0.1792,-0.1793,-0.1847,0,0,0,-0.1374,-0.1394,-0.1403,-0.1418,-0.1443,-0.1538,-0.1488,-0.1583,-0.1597,-0.1618,-0.1673,-0.1676,-0.1792,-0.1793,-0.1845,-0.1857,0,0,0,-0.1353,-0.1394,-0.1386,-0.1416,-0.144,-0.1535,-0.1527,-0.1588,-0.1601,-0.1672,-0.1676,-0.1791,-0.1793,-0.1842,-0.1853,-0.1836,0,0,0,-0.1387,-0.1379,-0.1387,-0.1427,-0.1438,-0.154,-0.1526,-0.1637,-0.1708,-0.1674,-0.1792,-0.1793,-0.1841,-0.1851,-0.1835,-0.1626,0,0,0,-0.1387,-0.138,-0.141,-0.1418,-0.1523,-0.1528,-0.1655,-0.173,-0.1723,-0.1757,-0.1761,-0.1846,-0.1853,-0.1836,-0.1703,0,0,0,0,-0.1419,-0.1435,-0.1477,-0.1545,-0.161,-0.169,-0.1756,-0.1768,-0.1821,-0.1758,-0.1856,-0.1859,-0.1846,-0.1721,-0.1799,-0.1799,-0.1799,-0.1799,-0.1799,-0.142,-0.1478,-0.1562,-0.164,-0.1718,-0.1818,-0.1867,-0.1885,-0.1888,-0.1909,-0.1912,-0.1947,-0.182,-0.1926,-0.1927,-0.1927,-0.1927,-0.1927,-0.1927,-0.1443,-0.1479,-0.1609,-0.1702,-0.18,-0.1894,-0.1961,-0.1966,-0.1984,-0.1975,-0.196,-0.1799,-0.1933,-0.1932,-0.1931,-0.193,-0.193,-0.193,-0.1929,-0.1417,-0.1436,-0.1535,-0.1689,-0.181,-0.1915,-0.194,-0.1996,-0.2017,-0.2024,-0.1853,-0.1967,-0.1949,-0.201,-0.201,-0.201,-0.201,-0.201,-0.201,-0.1321,-0.1421,-0.1504,-0.1666,-0.1735,-0.1822,-0.1923,-0.1919,-0.1972,-0.1881,-0.203,-0.1974,-0.1971,-0.1953,-0.201,-0.201,-0.201,-0.201,-0.201,-0.1251,-0.1316,-0.1402,-0.1484,-0.1618,-0.1652,-0.1788,-0.1774,-0.1751,-0.1712,-0.1784,-0.1796,-0.1743,-0.1746,-0.1718,-0.1707,-0.1705,-0.1702,0,-0.1187,-0.1232,-0.1316,-0.137,-0.1404,-0.1525,-0.1463,-0.1511,-0.1575,-0.1534,-0.1733,-0.1813,-0.182,-0.176,-0.1759,-0.1724,0,0,0,-0.1165,-0.1185,-0.1198,-0.1268,-0.1287,-0.1317,-0.1429,-0.1394,-0.1591,-0.1531,-0.1639,-0.1655,-0.1861,-0.2011,-0.1956,-0.1953,-0.192,0,0]},{"header":{"parameterUnit":"m.s-1","parameterCategory":2,"la1":30.2992,"la2":30.254,"lo1":-89.0895,"lo2":-89.0443,"dy":0.0025,"dx":0.0025,"nx":19,"ny":19,"refTime":"2026-04-03T09:00:00:Z","depth":"4","parameterNumber":3,"parameterNumberName":"V-component_of_CURRENTS"},"data":[0,0,0,-0.0145,-0.0144,-0.0047,-0.0046,0.0083,0.0085,0,0,0,0,0,0,0,0,0,0,0,-0.0181,-0.018,-0.0146,-0.0144,-0.0047,-0.0046,0.0083,0.0085,0,0,0,0,0,0,0,0,0,0,0,-0.0181,-0.018,-0.018,-0.0143,-0.0047,-0.0046,0.0083,0.0011,0,0,0,0,0,0,0,0,0,0,-0.0082,-0.0129,-0.018,-0.018,-0.0143,-0.0047,-0.0046,0.0008,0.0016,0.0038,0,0.0046,0,0.0065,0.0092,0.0093,0,0,0,-0.0133,-0.0135,-0.0102,-0.018,-0.0142,-0.0047,-0.0087,0.0012,0.0021,0.0049,0.0048,0.0053,0.0067,0.0093,0.0094,0.0138,0.0138,0,0,-0.0138,-0.0166,-0.0108,-0.0097,-0.0125,-0.0091,-0.0085,0.0018,0.0019,0.0049,0.0056,0.0069,0.0094,0.0095,0.0138,0.0138,0,0,0,-0.0161,-0.017,-0.0139,-0.0102,-0.0087,-0.0088,-0.0081,0.0015,0.0027,0.0058,0.0071,0.0095,0.0096,0.0139,0.0138,0.004,0,0,0,-0.0163,-0.0184,-0.0142,-0.0158,-0.0089,-0.0038,-0.0087,0.002,0.0032,0.007,0.0095,0.0097,0.0139,0.0139,0.0044,-0.0027,0,0,0,-0.0184,-0.0186,-0.0176,-0.016,-0.0122,-0.0039,-0.0021,0.0023,0.0039,0.0093,0.0097,0.014,0.0139,0.0047,-0.002,-0.0054,0,0,0,-0.0213,-0.0221,-0.0177,-0.0183,-0.0123,-0.0084,-0.0021,0.0019,0.0059,0.0095,0.0139,0.0138,0.0048,-0.0016,-0.005,-0.0024,0,0,0,-0.0244,-0.0226,-0.023,-0.0188,-0.0178,-0.0096,-0.0091,-0.0009,0.0052,0.0109,0.0111,0.0042,-0.002,-0.0053,-0.0079,0,0,0,0,-0.0253,-0.026,-0.0247,-0.023,-0.018,-0.0161,-0.0069,-0.0042,0.0006,0.007,0.0051,0.0015,-0.0003,0.0024,0.0134,0.0134,0.0134,0.0134,0.0134,-0.0338,-0.0309,-0.0323,-0.0285,-0.0262,-0.0196,-0.0183,-0.0129,-0.0042,-0.0046,-0.0058,-0.0145,-0.0119,-0.0033,-0.0033,-0.0034,-0.0034,-0.0034,-0.0035,-0.0405,-0.0417,-0.0391,-0.0397,-0.0363,-0.035,-0.0292,-0.0246,-0.0225,-0.0149,-0.016,-0.0073,-0.0044,-0.0042,-0.0041,-0.004,-0.0039,-0.0038,-0.0038,-0.0467,-0.0469,-0.0477,-0.0495,-0.051,-0.0455,-0.0487,-0.042,-0.0334,-0.035,-0.0274,-0.0214,-0.0213,-0.0329,-0.0329,-0.033,-0.033,-0.033,-0.0331,-0.0524,-0.0532,-0.0581,-0.0596,-0.062,-0.0634,-0.0599,-0.0569,-0.0471,-0.0405,-0.0369,-0.0244,-0.0234,-0.0229,-0.0338,-0.0337,-0.0336,-0.0335,-0.0335,-0.0586,-0.0606,-0.0672,-0.0713,-0.0766,-0.0771,-0.0745,-0.0637,-0.0616,-0.0539,-0.0419,-0.0413,-0.0376,-0.0363,-0.036,-0.0513,-0.0513,-0.0513,0,-0.0638,-0.0649,-0.0752,-0.0828,-0.0877,-0.0852,-0.0809,-0.0739,-0.0607,-0.0602,-0.0616,-0.0488,-0.0479,-0.0441,-0.043,-0.043,0,0,0,-0.0688,-0.0707,-0.0791,-0.0861,-0.0917,-0.0836,-0.0791,-0.0744,-0.063,-0.0558,-0.0516,-0.0515,-0.0419,-0.036,-0.0288,-0.0276,-0.0264,0,0]}]]